Worthington, MN

8:46 AM CST on December 04, 2016 (GMT -0600)
Worthington Municipal

Weather History for KOTG - January, 2014

Change the Weather History Date:

Thursday, January 16, 2014

  Actual Average Record
Temperature  
Mean Temperature 20 °F -  
Max Temperature 35 °F 21 °F 54 °F (1990)
Min Temperature 6 °F 6 °F -29 °F (1972)
Degree Days  
Heating Degree Days 44    
Moisture  
Dew Point 18 °F    
Average Humidity 66    
Maximum Humidity 80    
Minimum Humidity 56    
Precipitation  
Precipitation 0.00 in - - ()
Sea Level Pressure  
Sea Level Pressure 29.71 in    
Wind  
Wind Speed 25 mph (NW)    
Max Wind Speed 39 mph    
Max Gust Speed 51 mph    
Visibility 7 miles    
Events      
Averages and records for this station are not official NWS values.
T = Trace of Precipitation, MM = Missing Value Source: NWS Daily Summary

Daily Weather History Graph

Daily Weather History Graph

Search for Another Location

Airport or City:

Trip Planner

Search our weather history database for the weather conditions in past years. The results will help you decide how hot, cold, wet, or windy it might be!

Date:

Astronomy

Jan. 16, 2014 Rise Set
Actual Time 7:52 AM CST 5:12 PM CST
Civil Twilight 7:20 AM CST 5:44 PM CST
Nautical Twilight 6:45 AM CST 6:19 PM CST
Astronomical Twilight 6:10 AM CST 6:53 PM CST
Moon 6:08 PM CST (1/16) 7:43 AM CST (1/16)
Length of Visible Light 10h 23m
Length of Day
9h 20m
Full, 100% of the Moon is Illuminated
Jan 16
Full
Jan 23
Last Quarter
Jan 30
New
Feb 6
First Quarter
Feb 14
Full

Hourly Weather History & Observations

Time (CST) Temp. Windchill Dew Point Humidity Pressure Visibility Wind Dir Wind Speed Gust Speed Precip Events Conditions
12:15 AM 35.6 °F 24.8 °F 24.8 °F 65% 29.54 in 10.0 mi West 19.6 mph - N/A   Clear
12:35 AM 35.6 °F 24.2 °F 24.8 °F 65% 29.53 in 10.0 mi West 21.9 mph 27.6 mph N/A   Clear
12:55 AM 35.6 °F 23.7 °F 23.0 °F 60% 29.53 in 10.0 mi West 24.2 mph - N/A   Clear
1:15 AM 35.6 °F 24.8 °F 21.2 °F 56% 29.53 in 10.0 mi West 19.6 mph 26.5 mph N/A   Scattered Clouds
1:35 AM 33.8 °F 22.2 °F 21.2 °F 60% 29.53 in 10.0 mi West 20.7 mph - N/A   Scattered Clouds
1:55 AM 33.8 °F 22.2 °F 21.2 °F 60% 29.53 in 10.0 mi West 20.7 mph - N/A   Partly Cloudy
2:15 AM 33.8 °F 21.9 °F 21.2 °F 60% 29.53 in 10.0 mi West 21.9 mph 27.6 mph N/A   Mostly Cloudy
2:35 AM 33.8 °F 21.6 °F 21.2 °F 60% 29.53 in 10.0 mi West 23.0 mph 28.8 mph N/A   Overcast
2:55 AM 33.8 °F 21.3 °F 23.0 °F 65% 29.53 in 10.0 mi West 24.2 mph - N/A   Overcast
3:15 AM 35.6 °F 24.0 °F 23.0 °F 60% 29.53 in 10.0 mi West 23.0 mph 31.1 mph N/A   Overcast
3:35 AM 33.8 °F 20.5 °F 23.0 °F 65% 29.53 in 10.0 mi West 27.6 mph 33.4 mph N/A   Overcast
3:55 AM 33.8 °F 21.0 °F 24.8 °F 70% 29.52 in 10.0 mi West 25.3 mph 38.0 mph N/A   Scattered Clouds
4:15 AM 33.8 °F 20.8 °F 24.8 °F 70% 29.52 in 10.0 mi West 26.5 mph 35.7 mph N/A   Mostly Cloudy
4:35 AM 33.8 °F 20.1 °F 24.8 °F 70% 29.52 in 10.0 mi WNW 29.9 mph 34.5 mph N/A   Scattered Clouds
4:55 AM 33.8 °F 21.0 °F 24.8 °F 70% 29.51 in 8.0 mi West 25.3 mph 32.2 mph N/A   Mostly Cloudy
5:15 AM 33.8 °F 19.4 °F 24.8 °F 70% 29.51 in 7.0 mi WNW 33.4 mph 41.4 mph N/A   Mostly Cloudy
5:35 AM 33.8 °F 20.3 °F 24.8 °F 70% 29.52 in 3.0 mi WNW 28.8 mph 38.0 mph N/A   Mostly Cloudy
5:55 AM 30.2 °F 14.5 °F 24.8 °F 80% 29.53 in 5.0 mi WNW 33.4 mph 40.3 mph N/A   Mostly Cloudy
6:15 AM 30.2 °F 15.4 °F 23.0 °F 75% 29.54 in 4.0 mi WNW 28.8 mph 35.7 mph N/A   Overcast
6:35 AM - - - N/A% 29.54 in 10.0 mi NW 35.7 mph 46.0 mph N/A   Overcast
6:55 AM - - - N/A% 29.55 in 9.0 mi NW 36.8 mph 43.7 mph N/A   Overcast
7:15 AM - - - N/A% 29.57 in 10.0 mi NW 39.1 mph 50.6 mph N/A   Overcast
7:35 AM - - - N/A% 29.58 in 10.0 mi NW 31.1 mph 39.1 mph N/A   Overcast
7:55 AM 28.4 °F 13.8 °F 19.4 °F 69% 29.60 in 10.0 mi NNW 25.3 mph 29.9 mph N/A   Scattered Clouds
8:15 AM 26.6 °F 12.4 °F 17.6 °F 69% 29.61 in 10.0 mi NW 21.9 mph - N/A   Mostly Cloudy
8:35 AM 26.6 °F 13.8 °F 17.6 °F 69% 29.62 in 10.0 mi NW 17.3 mph - N/A   Overcast
8:55 AM 26.6 °F 14.7 °F 17.6 °F 69% 29.62 in 10.0 mi WNW 15.0 mph - N/A   Overcast
9:15 AM 26.6 °F 12.7 °F 17.6 °F 69% 29.62 in 10.0 mi NW 20.7 mph 24.2 mph N/A   Overcast
9:35 AM 28.4 °F 15.8 °F 17.6 °F 64% 29.63 in 10.0 mi NW 18.4 mph 24.2 mph N/A   Overcast
9:55 AM 28.4 °F 14.4 °F 17.6 °F 64% 29.63 in 10.0 mi NW 23.0 mph 28.8 mph N/A   Overcast
10:15 AM - - - N/A% 29.62 in 10.0 mi NW 29.9 mph 35.7 mph N/A   Overcast
10:35 AM 28.4 °F 18.0 °F 17.6 °F 64% 29.63 in 10.0 mi NW 12.7 mph - N/A   Overcast
10:55 AM 28.4 °F 15.1 °F 17.6 °F 64% 29.63 in 10.0 mi NW 20.7 mph 25.3 mph N/A   Overcast
11:15 AM 28.4 °F 15.1 °F 17.6 °F 64% 29.63 in 10.0 mi WNW 20.7 mph - N/A   Overcast
11:35 AM 28.4 °F 15.8 °F 17.6 °F 64% 29.63 in 10.0 mi NNW 18.4 mph - N/A   Overcast
11:55 AM 26.6 °F 12.4 °F 15.8 °F 64% 29.64 in 2.5 mi North 21.9 mph 26.5 mph N/A   Overcast
12:15 PM 24.8 °F 9.0 °F 15.8 °F 69% 29.65 in 1.5 mi North 25.3 mph 31.1 mph N/A   Overcast
12:35 PM 17.6 °F -0.6 °F 8.6 °F 68% 29.67 in 1.8 mi North 25.3 mph 29.9 mph N/A   Overcast
12:55 PM - - - N/A% 29.69 in 1.2 mi North 29.9 mph 33.4 mph N/A   Scattered Clouds
1:15 PM - - - N/A% 29.70 in 3.0 mi NNW 32.2 mph 39.1 mph N/A   Clear
1:35 PM - - - N/A% 29.71 in 1.2 mi NNW 34.5 mph 43.7 mph N/A   Scattered Clouds
1:55 PM - - - N/A% 29.73 in 2.0 mi NNW 33.4 mph 41.4 mph N/A   Scattered Clouds
2:15 PM - - - N/A% 29.75 in 8.0 mi NNW 27.6 mph 36.8 mph N/A   Scattered Clouds
2:35 PM - - - N/A% 29.77 in 6.0 mi NNW 32.2 mph 38.0 mph N/A   Scattered Clouds
2:55 PM - - - N/A% 29.78 in 1.5 mi NW 31.1 mph 43.7 mph N/A   Scattered Clouds
3:15 PM - - - N/A% 29.80 in 7.0 mi NW 31.1 mph 35.7 mph N/A   Scattered Clouds
3:35 PM - - - N/A% 29.81 in 1.0 mi NNW 35.7 mph 39.1 mph N/A   Overcast
3:55 PM - - - N/A% 29.82 in 5.0 mi NW 31.1 mph 41.4 mph N/A   Mostly Cloudy
4:15 PM - - - N/A% 29.83 in 1.0 mi NW 34.5 mph 40.3 mph N/A   Overcast
4:35 PM - - - N/A% 29.84 in 4.0 mi NW 26.5 mph 38.0 mph N/A   Mostly Cloudy
4:55 PM - - - N/A% 29.85 in 4.0 mi NW 28.8 mph 33.4 mph N/A   Scattered Clouds
5:15 PM - - - N/A% 29.86 in 5.0 mi NW 26.5 mph 38.0 mph N/A   Mostly Cloudy
5:35 PM - - - N/A% 29.88 in 6.0 mi NNW 27.6 mph 46.0 mph N/A   Mostly Cloudy
5:55 PM - - - N/A% 29.88 in 5.0 mi NW 28.8 mph 32.2 mph N/A   Mostly Cloudy
6:15 PM 6.8 °F -15.1 °F -4.0 °F 61% 29.89 in 7.0 mi NW 25.3 mph 34.5 mph N/A   Partly Cloudy
6:35 PM - - - N/A% 29.89 in 3.0 mi NW 24.2 mph 33.4 mph N/A   Mostly Cloudy
6:55 PM 6.8 °F -15.1 °F -0.4 °F 72% 29.90 in 1.2 mi NNW 25.3 mph 34.5 mph N/A   Overcast
7:15 PM - - - N/A% 29.90 in 1.5 mi NNW 27.6 mph 34.5 mph N/A   Overcast
7:35 PM 6.8 °F -14.3 °F -2.2 °F 67% 29.91 in 2.0 mi NW 23.0 mph 32.2 mph N/A   Mostly Cloudy
7:55 PM 6.8 °F -13.4 °F -2.2 °F 67% 29.91 in 1.5 mi NW 20.7 mph - N/A   Mostly Cloudy
8:15 PM - - - N/A% 29.91 in 0.5 mi NNW 33.4 mph 43.7 mph N/A   Mostly Cloudy
8:35 PM - - - N/A% 29.92 in 1.5 mi NNW 29.9 mph 41.4 mph N/A   Clear
8:55 PM - - - N/A% 29.92 in 5.0 mi NNW 28.8 mph 34.5 mph N/A   Clear
9:15 PM - - - N/A% 29.92 in 10.0 mi NW 26.5 mph 32.2 mph N/A   Clear
9:35 PM - - - N/A% 29.92 in 5.0 mi NNW 28.8 mph 36.8 mph N/A   Clear
9:55 PM - - - N/A% 29.93 in 8.0 mi NNW 28.8 mph 33.4 mph N/A   Scattered Clouds
10:15 PM - - - N/A% 29.93 in 10.0 mi NNW 27.6 mph 40.3 mph N/A   Scattered Clouds
10:35 PM - - - N/A% 29.93 in 10.0 mi NNW 29.9 mph 35.7 mph N/A   Clear
10:55 PM - - - N/A% 29.93 in 10.0 mi NNW 26.5 mph - N/A   Clear
11:15 PM - - - N/A% 29.94 in 10.0 mi NNW 25.3 mph 35.7 mph N/A   Clear
11:35 PM - - - N/A% 29.94 in 10.0 mi NNW 27.6 mph 36.8 mph N/A   Clear
11:55 PM - - - N/A% 29.94 in 10.0 mi NW 27.6 mph 34.5 mph N/A   Clear